Flag for Greece Weather past 2 weeks in Kallithea, Greece

Now
66 °F

Clear.


Feels Like: 66 °F
Forecast: 59 / 82 °F
Wind: 9 mph from Northwest

Location: Elefsis Airport

Current Time: Oct 1, 2014 at 12:00:12 AM

Latest Report: Sep 30, 2014 at 11:20 PM


Visibility: 10 mi

Pressure: 30.21 "Hg

Humidity: 43%

Dew point: 43 °F

Location of KallitheaLocation

Historic Weather in Kallithea — Graph

°F

Kallithea temperature yesterday

Maximum temperature yesterday: 79 °F (at 2:50 PM)
Minimum temperature yesterday: 59 °F (at 12:20 AM)
Average temperature yesterday: 69 °F

Past Weeks' High & Low Weather Summary

 TemperatureHumidityPressure
High95 °F (Sep 22, 3:20 PM)88% (Sep 26, 6:50 AM)30.33 "Hg (Sep 26, 6:50 AM)
Low57 °F (Sep 29, 6:50 AM)21% (Sep 23, 5:20 PM)29.71 "Hg (Sep 23, 11:20 AM)
Average73 °F55%30.00 "Hg
* Reported Sep 15 10:20 PM — Sep 30 10:50 PM, Kallithea, Weather by CustomWeather, © 2014

Note: Actual official high and low records may vary slightly from our data, if they occured in-between our weather recording intervals... More about our weather records

Advertising

Kallithea weather history for previous 24 hours

 ConditionsComfort  
Time TempWeatherWind HumidityBarometerVisibility
10:50 PM
Sep 30
66 °FClear.8 mph40%30.21 "Hg10 mi
9:50 PM73 °FClear.5 mph36%30.18 "Hg10 mi
9:20 PM73 °FClear.6 mph36%30.18 "Hg10 mi
8:50 PM73 °FClear.6 mph36%30.18 "Hg10 mi
7:50 PM73 °FSunny.12 mph36%30.18 "Hg10 mi
7:20 PM73 °FSunny.9 mph33%30.18 "Hg10 mi
6:50 PM75 °FSunny.12 mph31%30.18 "Hg10 mi
6:20 PM77 °FSunny.12 mph30%30.18 "Hg10 mi
5:50 PM77 °FSunny.12 mph30%30.18 "Hg10 mi
5:20 PM79 °FSunny.12 mph28%30.18 "Hg10 mi
4:50 PM79 °FSunny.14 mph28%30.18 "Hg10 mi
4:20 PM79 °FSunny.14 mph28%30.18 "Hg10 mi
3:50 PM79 °FSunny.14 mph30%30.18 "Hg10 mi
3:20 PM79 °FSunny.16 mph30%30.18 "Hg10 mi
2:50 PM79 °FSunny.12 mph32%30.18 "Hg10 mi
2:20 PM77 °FSunny.9 mph34%30.21 "Hg10 mi
1:50 PM77 °FSunny.12 mph32%30.21 "Hg10 mi
1:20 PM77 °FPassing clouds.14 mph34%30.24 "HgN/A
12:50 PM75 °FPassing clouds.13 mph39%30.24 "HgN/A
12:20 PM73 °FPassing clouds.14 mph44%30.24 "HgN/A
11:50 AM73 °FPassing clouds.14 mph44%30.24 "HgN/A
11:20 AM72 °FPassing clouds.14 mph47%30.27 "HgN/A
10:50 AM72 °FScattered clouds.9 mph47%30.27 "HgN/A
10:20 AM70 °FScattered clouds.12 mph50%30.27 "HgN/A
9:50 AM70 °FScattered clouds.9 mph50%30.27 "HgN/A
8:50 AM66 °FScattered clouds.12 mph56%30.24 "HgN/A
8:20 AM66 °FScattered clouds.10 mph56%30.24 "HgN/A
7:50 AM64 °FPassing clouds.8 mph56%30.24 "HgN/A
7:20 AM64 °FPassing clouds.10 mph60%30.24 "HgN/A
6:50 AM61 °FPassing clouds.No wind68%30.24 "HgN/A
6:20 AM61 °FPassing clouds.No wind68%30.24 "HgN/A
5:50 AM61 °FPassing clouds.No wind68%30.24 "HgN/A
5:20 AM59 °FPassing clouds.No wind68%30.27 "HgN/A
4:50 AM59 °FPassing clouds.No wind68%30.27 "HgN/A
3:50 AM59 °FPassing clouds.No wind68%30.27 "HgN/A
3:20 AM59 °FPassing clouds.No wind68%30.27 "HgN/A
2:50 AM59 °FPassing clouds.No wind68%30.27 "HgN/A
1:50 AM59 °FPassing clouds.No wind63%30.30 "HgN/A
1:20 AM61 °FPassing clouds.No wind59%30.30 "HgN/A
12:50 AM61 °FPassing clouds.No wind59%30.30 "HgN/A
12:20 AM59 °FPassing clouds.No wind59%30.24 "HgN/A
Weather by CustomWeather, © 2014

See weather overviewHow to use our weather pages